Regional Weather Roundup
Issued by NWS Charleston, SC

Current Version | Previous Version | Graphics & Text | Print | Product List | Glossary On
Versions: 1 2 3 4 5 6 7 8 9 10 11 12 13 14 15 16 17 18 19 20 21 22 23 24 25 26 27 28 29 30 31 32 33 34 35 36 37 38 39 40 41 42 43 44 45 46 47 48 49 50
000
ASUS42 KCHS 291911
RWRCHS

REGIONAL WEATHER ROUNDUP
NATIONAL WEATHER SERVICE CHARLESTON SC
200 PM EST THU JAN 29 2015

NOTE: "FAIR" INDICATES FEW OR NO CLOUDS BELOW 12,000 FEET WITH NO
SIGNIFICANT WEATHER AND/OR OBSTRUCTIONS TO VISIBILITY.

NOT ALL STATIONS ARE QUALITY CONTROLLED BY THE NATIONAL
WEATHER SERVICE. USE DATA WITH CAUTION...ESPECIALLY
DEWPOINT OBSERVATIONS.

SCZ027-030-031-034>040-042>050-292000-
...SOUTHEAST SOUTH CAROLINA...

CITY           SKY/WX    TMP DP  RH WIND       PRES   REMARKS
N CHARLESTON   CLOUDY    57  34  41 SW8G16    30.27F
WATERFRONT PRK   N/A     55 N/A N/A E6          N/A
MOUNT PLEASANT FAIR      54  34  47 SE5       30.28F
PINOPOLIS        N/A     55  28  35 SW6       30.20F
MONCKS CORNER  FAIR      55  27  33 SW8       30.26F
SUMMERVILLE    FAIR      55  32  41 SW8       30.27F
BEAUFORT MCAS  CLOUDY    59  40  49 S6        30.27F
BEAUFORT ARPT  FAIR      55  41  58 S6        30.26F
HILTON HEAD IS MOSUNNY   54  39  58 SE3       30.29F
WALTERBORO     CLOUDY    57  27  30 S8        30.27F
ALLENDALE      FAIR      55  27  33 VRB6      30.24F

...SOUTHERN MIDLANDS AND PEE DEE...

CITY           SKY/WX    TMP DP  RH WIND       PRES   REMARKS
GEORGETOWN     NOT AVBL
KINGSTREE      NOT AVBL
ORANGEBURG     CLOUDY    53  21  28 S9        30.25F
BARNWELL       FAIR      55  27  33 S7        30.25F
AIKEN          FAIR      52  27  37 S9        30.28F
MANNING        FAIR      52   0  11 S3        30.26F
COLUMBIA       PTSUNNY   53  23  31 S9        30.24F
SUMTER         CLOUDY    53  19  26 SW12      30.23F
FLORENCE       CLOUDY    52  17  25 S12       30.25F
MYRTLE BEACH   SUNNY     48  28  46 S10       30.29F
N MYRTLE BEACH PTSUNNY   47  26  44 S8        30.27F

$$

GAZ063-065-086>088-099>101-113>116-118-119-134>141-150-292000-
...SOUTHEAST GEORGIA...

CITY           SKY/WX    TMP DP  RH WIND       PRES   REMARKS
SAVANNAH ARPT  CLOUDY    58  38  47 S8        30.27F
HUNTER AAF     CLOUDY    58  41  53 S6        30.25F
FORT STEWART   CLOUDY    60  38  44 VRB5      30.24F
STATESBORO     PTSUNNY   57  36  44 S5        30.25F
SYLVANIA       MOCLDY    55  36  47 SW6       30.26F
CLAXTON        FAIR      59  37  44 SW6       30.26F

...CSRA...CENTRAL AND FAR SOUTHEAST GEORGIA...

CITY           SKY/WX    TMP DP  RH WIND       PRES   REMARKS
THOMSON        PTSUNNY   56  29  35 S3        30.28F
AUGUSTA-BUSH   PTSUNNY   56  21  25 S12       30.24F
AUGUSTA-DANIEL PTSUNNY   55  23  28 S9        30.25F
SWAINSBORO     FAIR      59   1  10 SW9       30.25F
VIDALIA        PTSUNNY   59  34  38 SW5       30.25F
EASTMAN        FAIR      58  30  33 SW6       30.28F
HAZLEHURST     FAIR      60  36  39 SW6       30.24F
ALMA           PTSUNNY   60  33  36 S9        30.24F
WAYCROSS       PTSUNNY   64  43  45 S10G16    30.24F
JESUP          FAIR      63  43  48 S8        30.25F
BAXLEY         FAIR      61  34  36 SW8       30.25F
BRUNSWICK      PTSUNNY   61  43  51 S7        30.26F
SAINT SIMONS   PTSUNNY   58  41  53 SE6       30.27F

$$

SCZ027-028-034-036>038-045-046-048>050-GAZ119-141-292000-
...LAKE AND SUPPLEMENTAL COASTAL OBSERVATIONS...

STATION/POSITION TIME  TEMP    WIND        PRES    WAVE   SWELL
                       AIR SEA DIR/SP/G            HT/PER HT/PER/DIR
                 (UTC) (F)     (DEG/KT/KT) (MB)    (FT/S) (FT/S/D)
UPR LAKE MARION  NOT AVBL
WINYAH BAY       NOT AVBL
LAKE MURRAY      1800   50     190/  6/  8 1024.0F
ACE BASIN NERRS  1745   53     170/  2     1026.0
FORT PULASKI     1800   50 52   70/  6/  7 1026.4F
SAPELO ISLAND    NOT AVBL

$$

ANZ835-935-AMZ111-154-330-350-352-354-370-450-454-472-292000-
...C-MAN AND BUOY OBSERVATIONS...

STATION/POSITION TIME  TEMP    WIND        PRES    WAVE   SWELL
                       AIR SEA DIR/SP/G            HT/PER HT/PER/DIR
                 (UTC) (F)     (DEG/KT/KT) (MB)    (FT/S) (FT/S/D)
BUOY 41004       1850   55 68  190/  8/ 10 1024.5F   3/10   3/10
BUOY 41008       1850   52 54   20/  4/  6 1025.0F   3/11   3/100/11
FOLLY BEACH CMAN 1900   50      40/  3/  3 1025.8F
CAPERS NEARSHORE NOT AVBL
FRIPP NEARSHORE  1800   51      70/  4/  4 1025.1F


STATION/POSITION TIME  TEMP    WIND        PRES    WAVE   SWELL
                       AIR SEA DIR/SP/G            HT/PER HT/PER/DIR
                 (UTC) (F)     (DEG/KT/KT) (MB)    (FT/S) (FT/S/D)
5E ST. MARYS GA  NOT AVBL
FRYING PAN BUOY  1850   51 67  230/  2/  6 1025.9F   3/ 9   3/ 80/ 9
BUOY 41025       1850   41 71  320/  6/ 10 1024.4F   5/10   5/ 20/10
CAPE LOOKOUT NC  1800   42      CALM  /  2 1025.7F
BUOY 41002       1850   57 72  320/ 10/ 14 1024.7F   7/11   7/ 30/11
BUOY 41010       1820   64 75   60/  6/ 10 1024.8F
ST AUGUSTINE FL  1900   56      10/  9/ 10 1025.3F


$$



USA.gov is the U.S. government's official web portal to all federal, state and local government web resources and services.